{"data":{"norad_id":48566,"intl_designator":"2021-041P","name":"STARLINK-2214","alt_names":[],"object_type":"PAYLOAD","status":"ACTIVE","operator":null,"country":"US","launch_date":"2021-05-15","launch_site_code":"AFETR","launch_vehicle":null,"mission":null,"orbit_class":"UNKNOWN","rcs_meters":null,"size_class":null,"mass_kg":null,"dimensions":null,"purposes":["comms"],"wikipedia_slug":null,"has_3d_model":false,"image_url":null,"decayed_at":null,"tle_current":{"epoch":"2026-05-25T05:26:41.036640Z","epoch_age_seconds":55204,"freshness":"FRESH","line1":"1 48566U 21041P   26145.22686385  .00000729  00000+0  35265-4 0  9997","line2":"2 48566  53.1600 152.9266 0001222  81.0996 279.0144 15.31703031276676","mean_motion":15.31703031,"eccentricity":0.0001222,"inclination_deg":53.16,"raan_deg":152.9266,"arg_perigee_deg":81.0996,"mean_anomaly_deg":279.0144,"bstar":3.5265e-5,"rev_number":27667,"period_min":94.013001923739,"perigee_km":469.89402832256,"apogee_km":471.56789165198,"semimajor_km":6848.8679599873,"source":"CELESTRAK","updated_at":"2026-05-25T13:38:16.726062Z"}}}